[[{"header":{"parameterUnit":"m.s-1","parameterCategory":1,"la1":30.2991,"la2":30.254,"lo1":-89.0895,"lo2":-89.0444,"dy":0.0017,"dx":0.0017,"nx":28,"ny":28,"refTime":"2024-02-16T03:00:00:Z","depth":0,"parameterNumber":2,"parameterNumberName":"U-component_of_WINDS"},"data":[0,0,0,0,0,0,0,0,0,0,0,0,0,0,0,0,0,0,0,0,0,0,0,0,0,0,0,0,0,0,0,0,0,0,0,0,0,0,0,0,0,0,0,0,0,0,0,0,0,0,0,0,0,0,0,0,0,0,-0.8316,-0.8317,0,-0.8366,-0.8366,-0.8367,-0.8346,-0.8345,-0.8343,-0.8342,-0.8393,-0.8395,-0.8398,0,0,0,0,0,0,0,0,0,0,0,0,0,-0.8204,-0.8206,-0.8316,-0.8317,-0.8317,-0.8366,-0.8366,-0.8367,-0.8346,-0.8345,-0.8343,-0.8342,-0.8392,-0.8395,-0.8398,0,0,0,0,0,0,0,0,0,0,0,0,0,-0.8253,-0.8207,-0.8316,-0.8313,-0.8313,-0.8365,-0.8366,-0.8367,-0.8346,-0.8344,-0.8343,-0.8341,-0.8391,-0.8395,-0.8398,-0.8457,0,0,-0.841,-0.8411,0,0,0,0,0,0,0,0,-0.825,-0.8257,-0.8312,-0.8313,-0.8313,-0.8348,-0.8345,-0.8397,-0.8347,-0.8334,-0.8342,-0.834,-0.8379,-0.8384,-0.8397,-0.8459,-0.8461,-0.841,-0.8412,-0.8414,-0.8415,0,0,0,0,0,0,0,-0.8247,-0.8255,-0.8336,-0.8313,-0.8314,-0.8309,-0.8314,-0.8355,-0.8366,-0.8335,-0.8333,-0.8339,-0.8379,-0.8394,-0.8398,-0.8462,-0.841,-0.8413,-0.8415,-0.8417,-0.8577,-0.8579,0,0,0,0,0,0,-0.8243,-0.8252,-0.8334,-0.8337,-0.8277,-0.8312,-0.8318,-0.8338,-0.8365,-0.8368,-0.8341,-0.8338,-0.8388,-0.8394,-0.84,-0.8472,-0.8414,-0.8417,-0.8419,-0.8575,-0.8577,-0.858,0,0,0,0,0,0,-0.8241,-0.8251,-0.8332,-0.8294,-0.8304,-0.8316,-0.8339,-0.834,-0.8355,-0.837,-0.8372,-0.8354,-0.8387,-0.8395,-0.8443,-0.8473,-0.8419,-0.8422,-0.8573,-0.8576,-0.8579,-0.8615,0,0,0,0,0,0,-0.8238,-0.825,-0.8272,-0.8295,-0.8306,-0.8375,-0.8341,-0.8343,-0.8361,-0.8358,-0.8382,-0.8385,-0.8386,-0.8438,-0.8447,-0.8477,-0.8425,-0.857,-0.8574,-0.8578,-0.8611,-0.8619,-0.8625,0,0,0,0,0,-0.8234,-0.828,-0.8273,-0.8283,-0.8334,-0.8376,-0.8383,-0.8384,-0.8364,-0.8386,-0.8396,-0.8384,-0.8468,-0.8443,-0.8453,-0.8485,-0.8568,-0.8573,-0.8577,-0.8608,-0.8617,-0.8625,0,0,0,0,0,0,-0.826,-0.8283,-0.8276,-0.8331,-0.8352,-0.8373,-0.8401,-0.8393,-0.842,-0.8416,-0.8416,-0.8422,-0.8472,-0.8483,-0.8455,-0.8544,-0.8515,-0.8522,-0.8535,-0.8544,-0.8551,-0.8548,-0.8428,0,0,0,0,0,-0.8272,-0.8304,-0.8323,-0.8369,-0.838,-0.8389,-0.8407,-0.8406,-0.8428,-0.8437,-0.845,-0.8472,-0.8504,-0.8524,-0.8554,-0.8612,-0.8618,-0.8639,-0.8646,-0.8652,-0.8658,-0.8692,-0.8702,-0.8595,-0.8595,-0.8595,0,0,-0.8298,-0.8314,-0.8334,-0.8375,-0.8391,-0.8425,-0.8397,-0.8433,-0.8459,-0.8442,-0.849,-0.85,-0.8525,-0.8579,-0.8604,-0.859,-0.8689,-0.8658,-0.8662,-0.8665,-0.8697,-0.8708,-0.8717,-0.8598,-0.8597,-0.8597,0,0,-0.8362,-0.8377,-0.8418,-0.8435,-0.846,-0.8466,-0.8476,-0.8499,-0.8505,-0.8553,-0.8542,-0.8572,-0.8626,-0.8644,-0.866,-0.8733,-0.8723,-0.8742,-0.878,-0.8813,-0.8821,-0.8829,-0.8856,-0.8865,-0.8748,-0.8748,-0.8749,0,-0.839,-0.8441,-0.844,-0.8478,-0.8497,-0.8484,-0.8527,-0.8543,-0.8577,-0.859,-0.8574,-0.8643,-0.8658,-0.8717,-0.8735,-0.8748,-0.876,-0.874,-0.882,-0.8827,-0.8834,-0.886,-0.887,-0.8751,-0.875,-0.875,-0.875,0,-0.8475,-0.851,-0.8541,-0.8574,-0.8596,-0.8636,-0.8642,-0.8665,-0.8662,-0.867,-0.8719,-0.8737,-0.8771,-0.8785,-0.8782,-0.8844,-0.8835,-0.8819,-0.8791,-0.8847,-0.8871,-0.8881,-0.8754,-0.8753,-0.8753,-0.8752,0,0,-0.8557,-0.859,-0.8602,-0.8617,-0.8645,-0.8672,-0.8712,-0.8745,-0.8765,-0.8789,-0.8823,-0.887,-0.8856,-0.8874,-0.8874,-0.8902,-0.896,-0.8883,-0.8884,-0.8898,-0.9032,-0.9044,-0.9056,-0.8954,-0.8956,-0.8957,-0.903,0,-0.8624,-0.8694,-0.8695,-0.876,-0.8793,-0.8782,-0.8817,-0.8838,-0.8846,-0.8876,-0.8885,-0.8919,-0.8897,-0.8909,-0.8936,-0.8947,-0.8987,-0.8942,-0.8986,-0.8988,-0.8982,-0.9068,-0.9081,-0.9149,-0.904,-0.9041,-0.9042,0,-0.8711,-0.8738,-0.8806,-0.883,-0.8844,-0.8876,-0.8907,-0.8936,-0.896,-0.8964,-0.8985,-0.8981,-0.9022,-0.8992,-0.905,-0.9019,-0.9037,-0.9046,-0.9048,-0.9053,-0.9019,-0.9077,-0.9171,-0.9182,-0.9057,-0.9056,-0.9055,0,-0.8765,-0.8819,-0.8867,-0.8881,-0.891,-0.8932,-0.8945,-0.8967,-0.8988,-0.9016,-0.9029,-0.9061,-0.9079,-0.9104,-0.9109,-0.9086,-0.9167,-0.9137,-0.9173,-0.9173,-0.9191,-0.919,-0.9291,-0.9201,-0.9201,-0.9201,-0.92,0,-0.8841,-0.8883,-0.8892,-0.8922,-0.8969,-0.8971,-0.9018,-0.9029,-0.9049,-0.9082,-0.9074,-0.9104,-0.9108,-0.9139,-0.9143,-0.9191,-0.9199,-0.9204,-0.9205,-0.9206,-0.9205,-0.9218,-0.9214,-0.9203,-0.9203,-0.9202,-0.9202,0,-0.891,-0.8917,-0.8969,-0.8993,-0.9,-0.9034,-0.9054,-0.9083,-0.9091,-0.9132,-0.9141,-0.9154,-0.9191,-0.9198,-0.9241,-0.9244,-0.9302,-0.9297,-0.9294,-0.9294,-0.933,-0.9327,-0.9444,-0.946,-0.9358,-0.9359,-0.936,0,-0.8958,-0.899,-0.9017,-0.9039,-0.9053,-0.9087,-0.9108,-0.9111,-0.9134,-0.9164,-0.919,-0.9226,-0.9255,-0.9315,-0.9328,-0.9362,-0.9359,-0.9397,-0.9364,-0.9364,-0.9361,-0.936,-0.9364,-0.9404,-0.9405,-0.9406,-0.9407,0,-0.9043,-0.9045,-0.9076,-0.9109,-0.9135,-0.9161,-0.9185,-0.9203,-0.9209,-0.9235,-0.9273,-0.9296,-0.9341,-0.9378,-0.9411,-0.9425,-0.9418,-0.9417,-0.9427,-0.9429,-0.9427,-0.943,-0.9313,-0.9414,-0.9414,-0.9413,-0.9413,-0.9412,-0.9104,-0.9133,-0.9157,-0.9192,-0.9211,-0.9234,-0.9263,-0.9275,-0.9307,-0.9344,-0.9344,-0.9386,-0.941,-0.9455,-0.9471,-0.9504,-0.9492,-0.9507,-0.9511,-0.9515,-0.9519,-0.942,-0.951,-0.951,-0.951,-0.951,-0.9509,0,-0.9189,-0.9205,-0.9237,-0.9272,-0.93,-0.929,-0.9317,-0.9341,-0.9379,-0.9402,-0.9431,-0.9476,-0.9511,-0.9528,-0.9564,-0.9587,-0.9585,-0.9597,-0.9595,-0.9599,-0.9527,-0.9515,-0.9598,-0.9598,-0.9598,-0.9598,-0.9598,-0.9598,-0.9237,-0.9286,-0.9292,-0.9351,-0.9366,-0.9407,-0.9424,-0.9446,-0.9464,-0.9515,-0.9544,-0.9555,-0.9576,-0.9613,-0.9646,-0.965,-0.9664,-0.9678,-0.9681,-0.9613,-0.9604,-0.9595,-0.9584,-0.9681,-0.9681,-0.975,-0.9751,-0.9751]},{"header":{"parameterUnit":"m.s-1","parameterCategory":1,"la1":30.2991,"la2":30.254,"lo1":-89.0895,"lo2":-89.0444,"dy":0.0017,"dx":0.0017,"nx":28,"ny":28,"refTime":"2024-02-16T03:00:00:Z","depth":0,"parameterNumber":3,"parameterNumberName":"V-component_of_WINDS"},"data":[0,0,0,0,0,0,0,0,0,0,0,0,0,0,0,0,0,0,0,0,0,0,0,0,0,0,0,0,0,0,0,0,0,0,0,0,0,0,0,0,0,0,0,0,0,0,0,0,0,0,0,0,0,0,0,0,0,0,0.3987,0.3987,0,0.4033,0.4034,0.4035,0.4102,0.4103,0.4104,0.4106,0.4152,0.4152,0.4152,0,0,0,0,0,0,0,0,0,0,0,0,0,0.3955,0.3955,0.3987,0.3987,0.3988,0.4033,0.4034,0.4035,0.4102,0.4103,0.4105,0.4106,0.4152,0.4152,0.4152,0,0,0,0,0,0,0,0,0,0,0,0,0,0.3982,0.3955,0.3986,0.4027,0.4031,0.4033,0.4034,0.4035,0.4102,0.4103,0.4105,0.4107,0.4152,0.4152,0.4152,0.4118,0,0,0.4152,0.4153,0,0,0,0,0,0,0,0,0.398,0.3983,0.402,0.4024,0.4029,0.4064,0.404,0.4063,0.4101,0.4075,0.4106,0.4108,0.4121,0.4124,0.4129,0.412,0.4122,0.4153,0.4153,0.4153,0.4153,0,0,0,0,0,0,0,0.3978,0.3981,0.4005,0.4021,0.4026,0.4042,0.4048,0.4044,0.4087,0.4077,0.4082,0.4087,0.4123,0.4128,0.413,0.4123,0.4153,0.4153,0.4153,0.4153,0.409,0.4088,0,0,0,0,0,0,0.397,0.3979,0.4004,0.4007,0.4008,0.4042,0.4048,0.4051,0.4088,0.4095,0.4085,0.409,0.4127,0.413,0.4132,0.4095,0.4153,0.4153,0.4153,0.4091,0.4089,0.4087,0,0,0,0,0,0,0.3969,0.3972,0.4002,0.3994,0.3999,0.404,0.4043,0.4051,0.4056,0.4094,0.4102,0.4082,0.4128,0.4132,0.4121,0.4098,0.4153,0.4153,0.4094,0.4091,0.4088,0.4021,0,0,0,0,0,0,0.3968,0.3971,0.3959,0.3993,0.3999,0.399,0.4041,0.405,0.4056,0.4062,0.4093,0.41,0.413,0.4121,0.4121,0.4099,0.4153,0.4096,0.4092,0.4089,0.4025,0.4016,0.4008,0,0,0,0,0,0.3967,0.3937,0.3958,0.396,0.3985,0.3989,0.3992,0.4028,0.4054,0.4042,0.4066,0.4099,0.41,0.4119,0.412,0.4098,0.4098,0.4093,0.4089,0.4029,0.4018,0.4008,0,0,0,0,0,0,0.3897,0.3942,0.3966,0.3946,0.3963,0.4,0.3986,0.4015,0.4024,0.403,0.4074,0.408,0.4064,0.408,0.41,0.4067,0.4104,0.41,0.4057,0.4047,0.4039,0.4035,0.4153,0,0,0,0,0,0.388,0.388,0.3919,0.3898,0.3906,0.3944,0.3947,0.3974,0.3993,0.4,0.4024,0.4041,0.4045,0.4047,0.4053,0.4028,0.4036,0.4013,0.4005,0.3998,0.3993,0.3982,0.3973,0.4074,0.4074,0.4074,0,0,0.3844,0.3868,0.3865,0.3885,0.3901,0.39,0.395,0.3946,0.3945,0.3999,0.3991,0.4009,0.4031,0.4013,0.4007,0.4026,0.3967,0.3992,0.3986,0.3986,0.3977,0.3967,0.3959,0.4071,0.4072,0.4072,0,0,0.3777,0.3796,0.3781,0.3796,0.3821,0.3847,0.3843,0.3876,0.389,0.3883,0.3924,0.3924,0.393,0.3945,0.3952,0.3893,0.3923,0.3893,0.3849,0.3837,0.3829,0.3822,0.3801,0.3793,0.3889,0.3889,0.3889,0,0.3729,0.3729,0.3769,0.3763,0.3771,0.3821,0.3806,0.3819,0.3844,0.3848,0.3869,0.388,0.3898,0.3884,0.387,0.3875,0.3872,0.389,0.3827,0.3821,0.3815,0.3795,0.3787,0.3885,0.3886,0.3886,0.3887,0,0.3668,0.3668,0.3653,0.3677,0.3683,0.3672,0.3711,0.3712,0.3738,0.3762,0.3754,0.3778,0.379,0.3789,0.3814,0.378,0.3791,0.3819,0.3857,0.3801,0.3783,0.3776,0.388,0.3881,0.3883,0.3883,0,0,0.3558,0.3606,0.3599,0.3611,0.3642,0.3643,0.3635,0.3648,0.3648,0.3664,0.3658,0.3663,0.369,0.3699,0.3726,0.3716,0.3668,0.3746,0.3747,0.3731,0.3632,0.361,0.3601,0.3689,0.3687,0.3686,0.363,0,0.3498,0.3487,0.3524,0.3504,0.3504,0.3553,0.3546,0.3564,0.3586,0.359,0.3614,0.3617,0.3652,0.3658,0.365,0.3675,0.3649,0.368,0.3684,0.3683,0.3677,0.3592,0.3569,0.3514,0.3623,0.3622,0.3621,0,0.3425,0.3438,0.3419,0.3452,0.3454,0.3447,0.3462,0.3465,0.3487,0.3504,0.3514,0.3547,0.3542,0.3578,0.3572,0.3592,0.3596,0.3609,0.3608,0.3609,0.3649,0.3591,0.3498,0.3489,0.3611,0.3612,0.3612,0,0.3347,0.336,0.335,0.3359,0.3397,0.3391,0.3407,0.3431,0.3437,0.345,0.3454,0.3466,0.3473,0.3482,0.3516,0.354,0.3506,0.3545,0.352,0.3519,0.351,0.351,0.3416,0.3512,0.3513,0.3513,0.3513,0,0.3276,0.3262,0.3316,0.3309,0.3296,0.3338,0.3323,0.3343,0.3365,0.3363,0.3405,0.3403,0.3449,0.3452,0.348,0.347,0.3473,0.3486,0.3494,0.3483,0.3481,0.3485,0.349,0.3511,0.3511,0.3511,0.3512,0,0.3186,0.3221,0.3214,0.3251,0.3261,0.3249,0.3281,0.3277,0.3302,0.33,0.3302,0.3342,0.3348,0.3383,0.3397,0.3415,0.3396,0.3411,0.3389,0.3394,0.3367,0.3369,0.3272,0.3262,0.3364,0.3363,0.3363,0,0.3138,0.3128,0.3165,0.3168,0.3182,0.3185,0.3192,0.3233,0.3238,0.3264,0.3256,0.3266,0.3276,0.3283,0.3313,0.3323,0.3339,0.3305,0.3341,0.333,0.3339,0.3339,0.3338,0.3296,0.3295,0.3294,0.3293,0,0.3049,0.3067,0.3075,0.3089,0.3096,0.3109,0.3124,0.3124,0.317,0.3174,0.3181,0.3188,0.3203,0.3212,0.3228,0.3245,0.3276,0.3282,0.3277,0.3265,0.3252,0.3259,0.3368,0.3284,0.3285,0.3285,0.3286,0.3286,0.2978,0.2973,0.2998,0.3006,0.3022,0.3036,0.3034,0.306,0.3067,0.3083,0.3107,0.311,0.3134,0.3159,0.3173,0.3176,0.3195,0.3187,0.3185,0.3183,0.3177,0.3252,0.3179,0.318,0.318,0.318,0.3181,0,0.2892,0.2911,0.2918,0.2939,0.2945,0.2975,0.2994,0.2997,0.3,0.302,0.3029,0.3037,0.3046,0.3077,0.309,0.3087,0.3102,0.3088,0.3089,0.3092,0.316,0.3163,0.3076,0.3076,0.3076,0.3076,0.3076,0.3076,0.2847,0.284,0.2861,0.2862,0.2881,0.2886,0.2894,0.2907,0.2923,0.2931,0.2939,0.2959,0.2984,0.2998,0.3008,0.3017,0.302,0.3002,0.3015,0.3077,0.3087,0.3097,0.31,0.3002,0.3002,0.2948,0.2948,0.2947]}]]